Tracking 20712 objects as of 27-May-2020
HD Live streaming from Space Station
objects crossing your sky now

INTELSAT 6B (PAS 6B)

Track INTELSAT 6B (PAS 6B) now!
INTELSAT 6B (PAS 6B) is classified as:


NORAD ID: 25585
Int'l Code: 1998-075A
Perigee: 36,046.6 km
Apogee: 36,172.2 km
Inclination: 8.9 °
Period: 1,452.3 minutes
Semi major axis: 42480 km
RCS: 21.1435 m2 (large)
Launch date: December 22, 1998
Source: United States (US)
Launch site: FRENCH GUIANA (FRGUI)

voice and video communcations; 32 Ku-band; South America.
aabbcc
Your satellite tracking list
Your tracking list is empty




NASA's NSSDC Master Catalog

Two Line Element Set (TLE):
1 25585U 98075A   20148.26657542 -.00000170 +00000-0 +00000-0 0  9995
2 25585 008.9197 044.8724 0014787 092.8016 203.7619 00.99156306078050
Source of the keplerian elements: AFSPC